FW0812 Weather Reports


time (UTC)temp
C
wind
direction
speed
KPH
gust
KPH
rain 1hr
cm
rain 24hr
cm
rain mn
cm
humidity
%
barometer
mb
20260507070009 10 306 0.0 0.0 0.00 0.53 0.00 85 1008.1
20260507064504 10 276 0.0 0.0 0.00 0.53 0.00 86 1008.3
20260507063001 10 271 0.0 0.0 0.00 0.53 0.00 86 1008.1
20260507061600 10 298 0.0 0.0 0.00 0.53 0.00 85 1008.0
20260507054613 10 278 0.0 0.0 0.00 0.53 0.00 85 1008.4
20260507053106 11 275 0.0 0.0 0.00 0.53 0.00 85 1008.4
20260507051558 11 271 0.0 0.0 0.00 0.53 0.00 85 1008.3
20260507050056 11 264 0.0 0.0 0.00 0.53 0.00 86 1007.9
20260507044556 11 299 0.0 0.0 0.00 0.53 0.00 86 1008.0
20260507043049 12 279 0.0 0.0 0.00 0.53 0.00 87 1008.3
20260507041558 12 292 0.0 0.0 0.00 0.53 0.00 88 1008.1
20260507040043 12 294 0.0 0.0 0.00 0.53 0.00 90 1007.9
20260507034538 13 299 0.0 0.0 0.00 0.53 0.53 91 1007.6
20260507033038 13 291 0.0 0.0 0.00 0.53 0.53 92 1007.4
20260507031538 14 284 0.0 0.0 0.00 0.53 0.53 93 1007.7
20260507030031 15 283 0.0 0.0 0.00 0.53 0.53 93 1007.1
20260507024534 15 306 0.0 0.0 0.00 0.53 0.53 93 1006.9
20260507023029 15 259 0.0 0.0 0.00 0.53 0.53 93 1006.6
20260507021534 15 211 0.0 0.0 0.00 0.53 0.53 93 1006.7
20260507020027 15 298 0.0 0.0 0.00 0.53 0.53 93 1006.9
20260507014529 15 296 0.0 0.0 0.00 0.53 0.53 93 1007.0
20260507013025 15 355 0.0 0.0 0.00 0.53 0.53 93 1007.1
20260507011525 15 207 0.0 0.0 0.00 0.53 0.53 93 1007.1
20260507010031 15 257 0.0 0.0 0.00 0.53 0.53 93 1007.1
20260507004523 15 300 0.0 0.0 0.03 0.53 0.53 93 1007.0
20260507003022 15 290 0.0 0.0 0.05 0.53 0.53 93 1006.8
20260507001522 15 296 0.0 0.0 0.08 0.53 0.53 93 1006.9
20260507000026 15 227 0.0 0.0 0.08 0.53 0.53 93 1006.8
20260506234520 15 272 0.0 0.0 0.05 0.51 0.51 92 1006.9
20260506233020 15 182 0.0 0.0 0.05 0.48 0.48 92 1006.8
20260506231520 15 213 0.0 0.0 0.03 0.46 0.46 92 1007.1
20260506230019 15 148 0.0 0.0 0.05 0.46 0.46 92 1007.0
20260506224516 15 179 0.0 0.0 0.05 0.46 0.46 92 1007.1
20260506223014 15 275 0.0 0.0 0.08 0.43 0.43 92 1007.2
20260506221513 16 317 0.0 0.0 0.08 0.43 0.43 91 1007.2
20260506220012 16 165 0.0 0.0 0.08 0.41 0.41 91 1007.5
20260506214510 16 229 0.0 0.0 0.13 0.41 0.41 91 1007.6
20260506213010 16 112 0.0 0.0 0.10 0.36 0.36 91 1007.7
20260506211507 16 182 0.0 0.0 0.15 0.36 0.36 90 1007.8
20260506210006 16 178 0.0 0.0 0.15 0.33 0.33 90 1008.0
20260506204509 16 161 0.0 0.0 0.13 0.28 0.28 90 1008.0
20260506203004 17 325 0.0 0.0 0.10 0.25 0.25 90 1008.1
20260506201507 17 236 0.0 0.0 0.08 0.20 0.20 89 1008.1
20260506200004 17 144 0.0 0.0 0.08 0.18 0.18 89 1007.9
20260506194502 17 134 0.0 0.0 0.10 0.15 0.15 88 1008.0
20260506193001 17 130 0.0 0.0 0.15 0.15 0.15 86 1007.9
20260506191605 17 281 0.0 0.0 0.13 0.13 0.13 85 1008.3
20260506190059 18 282 0.0 0.0 0.10 0.10 0.10 82 1008.4
20260506184600 19 289 0.0 0.0 0.08 0.08 0.08 78 1008.5
20260506183103 20 334 0.0 0.0 0.00 0.00 0.00 72 1008.1
20260506181605 21 246 0.0 0.0 0.00 0.00 0.00 65 1008.2
20260506180055 22 240 0.0 0.0 0.00 0.00 0.00 57 1008.0
20260506174553 23 5 0.0 0.0 0.00 0.00 0.00 56 1008.0
20260506173119 23 243 0.0 0.0 0.00 0.00 0.00 56 1008.2
20260506171554 23 5 0.0 0.0 0.00 0.00 0.00 56 1008.5
20260506170103 23 301 0.0 0.0 0.00 0.00 0.00 59 1008.4
20260506164545 22 144 0.0 0.0 0.00 0.00 0.00 61 1008.7
20260506163053 22 207 0.0 0.0 0.00 0.00 0.00 60 1009.1
20260506161541 22 263 0.0 0.0 0.00 0.00 0.00 61 1009.3
20260506160042 22 280 0.0 0.0 0.00 0.00 0.00 61 1009.6
20260506154542 21 300 0.0 0.0 0.00 0.00 0.00 64 1010.1
20260506153037 21 199 0.0 0.0 0.00 0.00 0.00 63 1010.3
20260506151534 21 320 0.0 0.0 0.00 0.00 0.00 64 1010.2
20260506150032 21 242 0.0 0.0 0.00 0.00 0.00 65 1010.4
20260506144539 21 173 0.0 0.0 0.00 0.00 0.00 65 1010.3
20260506143030 21 279 0.0 0.0 0.00 0.00 0.00 67 1010.5
20260506141526 20 236 0.0 0.0 0.00 0.00 0.00 69 1010.2
20260506140023 19 142 0.0 0.0 0.00 0.00 0.00 71 1010.2
20260506134520 19 234 0.0 0.0 0.00 0.00 0.00 71 1010.5
20260506133020 19 166 0.0 0.0 0.00 0.00 0.00 71 1010.7
20260506131516 19 315 0.0 0.0 0.00 0.00 0.00 71 1010.7
20260506130017 18 267 0.0 0.0 0.00 0.00 0.00 72 1010.7
20260506124514 18 220 0.0 0.0 0.00 0.00 0.00 73 1010.4
20260506123014 18 271 0.0 0.0 0.00 0.00 0.00 74 1010.8
20260506121512 17 263 0.0 0.0 0.00 0.00 0.00 75 1010.9
20260506120011 17 322 0.0 0.0 0.00 0.00 0.00 75 1011.1
20260506114509 17 46 0.0 0.0 0.00 0.00 0.00 75 1011.2
20260506113009 17 215 0.0 0.0 0.00 0.00 0.00 76 1011.3
20260506111508 16 285 0.0 0.0 0.00 0.00 0.00 76 1011.4
20260506110007 16 319 0.0 0.0 0.00 0.00 0.00 76 1011.4
20260506104518 16 281 0.0 0.0 0.00 0.00 0.00 76 1011.3
20260506103007 16 214 0.0 0.0 0.00 0.00 0.00 76 1011.3
20260506101507 16 244 0.0 0.0 0.00 0.00 0.00 76 1011.3
20260506100002 16 259 0.0 0.0 0.00 0.00 0.00 75 1011.3
20260506094502 16 331 0.0 0.0 0.00 0.00 0.00 75 1011.1
20260506093100 16 254 0.0 0.0 0.00 0.00 0.00 74 1011.3
20260506091602 16 254 0.0 0.0 0.00 0.00 0.00 74 1011.0
20260506090058 16 320 0.0 0.0 0.00 0.00 0.00 73 1011.0
20260506084555 17 325 0.0 0.0 0.00 0.00 0.00 72 1011.0
20260506083054 17 298 0.0 0.0 0.00 0.00 0.00 71 1011.0
20260506081558 17 267 0.0 0.0 0.00 0.00 0.00 71 1011.0
20260506073050 17 246 0.0 0.0 0.00 0.00 0.00 68 1010.5
20260506071547 17 304 0.0 0.0 0.00 0.00 0.00 68 1010.3